SCP
0 0 0 0 0 0 0 -0 0 0 0 0 0 0 0 0 0 0 0 0 0 0 0 0 0 0 0 0 0 0 0 0
0 0 0 0 0 0 0 0 0 -0 -0 0 0 0 0 0 0 0 0 0 0 0 0 0 0 0 0 0 0 0 0 0
0 0 0 0 0 0 0 0 0 0 0 -0 -0 0 0 0 0 0 0 0 0 0 0 0 0 0 0 0 0 0 0 0
0 0 -0 0 0 0 0 0 0 0 0 0 -0 -0 -0 0 0 0 0 0 0 0 0 0 0 0 0 0 0 0 0 0
0 0 0 0 0 0 0 0 0 0 0 0 0 0 0 0 0 0 0 0 0 0 0 0 0 0 0 0 0 0 0 0
-0 -0 -0 0 0 0 0 0 0 0 0 0 0 0 0 0 0 0 0 0 0 0 0 0 0 0 0 0 0 0 0 0
-0 -0 -0 -0 -0 -0 -0 0 0 0 0 0 0 0 0 0 -0 0 0 0 0 0 0 0 0 0 0 0 0 0 0 0
-0 -0 -0 -0 -0 -0 -0 0 0 0 0 0 0 0 0 0 0 -0 -0 0 0 0 0 0 0 0 0 0 0 0 0 0
-0 -0 -0 -0 -0 -0 -0 -0 -0 -0 -0 -0 0 -0 0 0 0 0 0 0 0 0 0 0 0 0 0 0 0 0 0 0
-0 -0 -0 -0 -0 -0 -0 -0 -0 -0 -0 -0 -0 -0 -0 0 0 0 0 0 0 0 0 0 0 0 0 0 0 0 0 0
0 0 0 0 -0 -0 -0 -0 -0 -0 0 0 -0 -0 0 -0 0 0 0 0 0 0 0 0 0 0 0 0 0 0 0 0
0 0 0 0 0 -0 -0 -0 -0 -0 -0 -0 -0 -0 -0 0 0 0 0 0 0 0 0 0 0 0 0 0 0 0 0 0
0 0 0 0 0 0 0 0 0 0 -0 -0 -0 -0 -0 -0 -0 0 0 0 0 0 0 0 0 0 0 0 0 0 0 0
0 0 0 0 0 0 0 0 0 -0 -0 -0 -0 -0 -0 -0 -0 -0 0 0 0 0 0 0 0 0 0 0 0 0 0 0
0 0 0 0 0 0 0 0 0 0 -0 -0 -0 -0 -0 -0 -0 -0 0 0 0 0 0 0 0 0 0 0 0 0 0 0
0 0 0 0 0 0 0 0 0 0 0 -0 -0 -0 -0 -0 -0 -0 -0 0 0 0 0 0 0 0 0 0 0 0 0 0
0 0 0 0 0 0 0 0 0 0 0 0 -0 -0 -0 -0 -0 -0 0 0 0 0 0 0 0 0 0 0 0 0 0 0
0 0 0 0 0 0 0 0 0 0 0 0 0 0 0 0 0 0 0 0 0 0 0 0 0 0 0 -0 0 0 0 0
0 0 0 0 0 0 0 0 0 0 0 0 0 0 0 0 0 0 0 0 0 0 0 0 0 0 0 0 0 0 0 0
-0 -0 0 0 0 0 0 0 0 0 0 0 0 0 0 0 0 0 0 0 0 0 0 0 0 0 0 -0 0 0 0 0
Wind_Speed_500mb
59 53 51 51 50 50 52 56 54 52 52 54 53 55 67 73 79 84 83 86 90 94 98 107 111 111 109 107 103 100 97 91
61 63 60 59 57 51 54 57 62 62 59 56 49 51 57 66 72 74 73 81 89 90 93 97 105 111 112 113 109 105 102 98
66 65 64 68 67 68 59 56 62 63 62 61 58 52 52 65 69 69 70 75 82 88 94 97 98 106 114 117 113 108 112 106
70 71 72 72 73 72 73 71 66 66 69 65 67 65 57 56 63 69 66 73 85 85 91 100 101 102 105 115 118 114 115 112
53 61 63 64 68 73 74 73 75 73 74 74 75 77 75 65 57 61 67 70 81 85 90 95 103 101 104 108 114 116 117 116
47 55 54 60 60 61 69 74 78 82 82 78 80 80 84 77 68 62 61 71 80 83 85 92 102 108 109 108 112 121 120 121
53 57 60 61 64 66 62 62 68 74 79 86 84 85 80 85 80 69 64 64 73 79 82 91 99 108 111 111 112 116 120 120
59 59 60 61 64 67 66 70 69 68 72 77 82 90 91 84 82 79 66 61 66 72 81 87 91 99 105 106 110 115 120 117
71 70 66 61 60 65 66 70 77 78 78 81 86 85 88 92 87 80 75 64 59 66 74 82 87 94 100 93 97 108 115 116
71 77 81 77 72 73 75 78 82 86 87 87 91 94 86 87 89 83 78 71 60 58 66 72 80 90 95 94 92 95 104 111
75 81 84 86 86 89 88 84 85 88 94 98 97 93 94 89 86 83 79 75 65 58 59 63 72 78 82 88 92 92 101 114
81 89 91 90 89 91 91 92 96 94 97 100 103 104 102 98 91 83 76 81 74 63 59 60 69 71 66 72 87 98 106 111
89 95 94 95 94 99 101 101 96 102 109 106 104 110 110 107 99 88 77 73 82 73 61 57 62 68 66 69 84 91 99 96
91 96 100 102 98 101 112 109 113 114 114 115 112 105 111 112 103 94 82 76 76 79 70 66 57 55 58 64 77 95 90 90
83 94 105 107 99 103 112 109 116 122 123 122 117 114 104 109 103 86 83 78 74 79 76 68 66 54 49 58 72 88 78 78
75 84 100 99 101 99 101 106 117 119 119 113 110 111 103 100 100 82 79 77 72 76 72 73 71 57 45 58 79 93 89 69
87 87 97 98 104 101 95 92 100 109 106 96 90 92 92 93 104 85 70 66 71 68 70 70 66 53 38 44 80 85 87 74
87 91 95 99 103 97 96 92 90 90 93 89 85 83 76 77 73 83 74 51 62 62 68 67 63 46 45 34 73 73 79 79
91 91 94 95 95 96 92 90 88 87 87 86 83 81 78 75 70 62 61 60 58 59 54 64 55 54 41 37 66 71 76 90
84 84 83 88 92 85 83 85 85 84 83 81 80 78 76 72 71 71 71 69 60 61 47 44 47 55 48 46 78 85 86 94
Wind_Direction_500mb
8 2 359 358 356 353 353 350 346 335 331 329 319 303 287 276 270 266 263 256 249 244 239 236 233 231 230 231 230 230 231 229
353 356 356 354 353 351 348 347 341 338 332 322 316 307 296 287 280 270 267 260 255 248 242 239 236 234 231 231 230 231 232 231
1 353 349 353 353 354 349 344 347 344 337 331 322 308 299 290 284 280 275 263 255 250 248 242 237 234 233 232 231 230 232 231
359 357 359 356 352 350 351 353 349 348 346 343 336 327 306 294 290 283 276 269 258 250 247 247 243 238 235 234 234 231 232 233
351 353 353 352 350 350 347 343 343 346 349 347 346 342 328 307 289 283 277 269 264 257 251 248 246 244 239 235 235 234 234 235
341 339 347 344 344 346 346 344 342 338 338 341 344 339 340 329 305 290 281 272 265 261 256 253 249 246 240 236 234 234 233 233
340 339 340 337 338 340 341 338 335 334 336 335 336 335 333 337 332 304 289 282 271 262 255 252 252 249 244 240 237 237 235 233
331 331 328 331 333 334 337 337 335 333 329 328 328 326 329 328 330 332 302 288 281 270 261 253 250 249 248 244 242 239 237 235
320 322 321 322 324 325 329 333 335 336 333 331 327 323 321 322 322 324 323 294 285 280 270 261 256 253 250 245 243 241 243 240
312 317 317 316 318 319 321 325 327 329 330 329 327 323 319 317 315 315 316 314 288 280 275 268 261 257 252 245 238 237 240 243
309 312 311 313 315 316 316 317 319 321 321 323 323 321 318 314 311 307 305 308 304 287 277 273 267 259 253 246 239 236 237 237
307 307 307 307 310 309 308 309 314 313 313 315 316 315 315 312 309 305 300 300 299 295 285 276 271 264 254 246 242 242 234 232
306 305 304 304 305 304 303 307 306 305 305 306 307 307 308 308 306 304 298 291 292 291 288 280 270 266 255 234 230 241 241 241
305 304 303 303 304 301 302 303 303 303 301 300 301 300 300 302 303 301 295 286 283 284 284 284 281 266 256 239 223 233 237 239
301 299 300 302 300 297 298 299 298 298 298 298 297 296 294 294 296 294 289 284 279 278 279 283 281 278 254 238 214 223 223 228
297 296 295 296 294 294 294 295 295 295 295 294 294 294 292 287 287 285 281 280 276 272 274 273 271 276 272 228 212 214 222 221
301 298 297 296 294 294 293 292 291 292 292 291 291 290 289 285 284 281 274 266 268 261 261 267 269 271 263 244 211 216 216 219
305 303 302 302 301 303 303 300 296 291 292 291 289 288 284 282 281 284 279 265 259 256 256 252 265 267 262 232 210 219 211 213
317 312 310 306 302 310 308 302 296 293 291 289 286 285 284 282 281 277 274 281 268 265 253 248 244 257 247 228 203 202 205 216
313 307 308 307 309 315 311 305 302 299 294 292 288 285 283 280 275 273 272 265 264 269 268 241 241 233 234 219 203 203 198 206
Wind_Speed_850mb
59 53 51 51 50 50 52 56 54 52 52 54 53 55 67 73 79 84 83 86 90 94 98 107 111 111 109 107 103 100 97 91
61 63 60 59 57 51 54 57 62 62 59 56 49 51 57 66 72 74 73 81 89 90 93 97 105 111 112 113 109 105 102 98
66 65 64 68 67 68 59 56 62 63 62 61 58 52 52 65 69 69 70 75 82 88 94 97 98 106 114 117 113 108 112 106
70 71 72 72 73 72 73 71 66 66 69 65 67 65 57 56 63 69 66 73 85 85 91 100 101 102 105 115 118 114 115 112
53 61 63 64 68 73 74 73 75 73 74 74 75 77 75 65 57 61 67 70 81 85 90 95 103 101 104 108 114 116 117 116
47 55 54 60 60 61 69 74 78 82 82 78 80 80 84 77 68 62 61 71 80 83 85 92 102 108 109 108 112 121 120 121
53 57 60 61 64 66 62 62 68 74 79 86 84 85 80 85 80 69 64 64 73 79 82 91 99 108 111 111 112 116 120 120
59 59 60 61 64 67 66 70 69 68 72 77 82 90 91 84 82 79 66 61 66 72 81 87 91 99 105 106 110 115 120 117
71 70 66 61 60 65 66 70 77 78 78 81 86 85 88 92 87 80 75 64 59 66 74 82 87 94 100 93 97 108 115 116
71 77 81 77 72 73 75 78 82 86 87 87 91 94 86 87 89 83 78 71 60 58 66 72 80 90 95 94 92 95 104 111
75 81 84 86 86 89 88 84 85 88 94 98 97 93 94 89 86 83 79 75 65 58 59 63 72 78 82 88 92 92 101 114
81 89 91 90 89 91 91 92 96 94 97 100 103 104 102 98 91 83 76 81 74 63 59 60 69 71 66 72 87 98 106 111
89 95 94 95 94 99 101 101 96 102 109 106 104 110 110 107 99 88 77 73 82 73 61 57 62 68 66 69 84 91 99 96
91 96 100 102 98 101 112 109 113 114 114 115 112 105 111 112 103 94 82 76 76 79 70 66 57 55 58 64 77 95 90 90
83 94 105 107 99 103 112 109 116 122 123 122 117 114 104 109 103 86 83 78 74 79 76 68 66 54 49 58 72 88 78 78
75 84 100 99 101 99 101 106 117 119 119 113 110 111 103 100 100 82 79 77 72 76 72 73 71 57 45 58 79 93 89 69
87 87 97 98 104 101 95 92 100 109 106 96 90 92 92 93 104 85 70 66 71 68 70 70 66 53 38 44 80 85 87 74
87 91 95 99 103 97 96 92 90 90 93 89 85 83 76 77 73 83 74 51 62 62 68 67 63 46 45 34 73 73 79 79
91 91 94 95 95 96 92 90 88 87 87 86 83 81 78 75 70 62 61 60 58 59 54 64 55 54 41 37 66 71 76 90
84 84 83 88 92 85 83 85 85 84 83 81 80 78 76 72 71 71 71 69 60 61 47 44 47 55 48 46 78 85 86 94
Wind_Direction_850mb
8 2 359 358 356 353 353 350 346 335 331 329 319 303 287 276 270 266 263 256 249 244 239 236 233 231 230 231 230 230 231 229
353 356 356 354 353 351 348 347 341 338 332 322 316 307 296 287 280 270 267 260 255 248 242 239 236 234 231 231 230 231 232 231
1 353 349 353 353 354 349 344 347 344 337 331 322 308 299 290 284 280 275 263 255 250 248 242 237 234 233 232 231 230 232 231
359 357 359 356 352 350 351 353 349 348 346 343 336 327 306 294 290 283 276 269 258 250 247 247 243 238 235 234 234 231 232 233
351 353 353 352 350 350 347 343 343 346 349 347 346 342 328 307 289 283 277 269 264 257 251 248 246 244 239 235 235 234 234 235
341 339 347 344 344 346 346 344 342 338 338 341 344 339 340 329 305 290 281 272 265 261 256 253 249 246 240 236 234 234 233 233
340 339 340 337 338 340 341 338 335 334 336 335 336 335 333 337 332 304 289 282 271 262 255 252 252 249 244 240 237 237 235 233
331 331 328 331 333 334 337 337 335 333 329 328 328 326 329 328 330 332 302 288 281 270 261 253 250 249 248 244 242 239 237 235
320 322 321 322 324 325 329 333 335 336 333 331 327 323 321 322 322 324 323 294 285 280 270 261 256 253 250 245 243 241 243 240
312 317 317 316 318 319 321 325 327 329 330 329 327 323 319 317 315 315 316 314 288 280 275 268 261 257 252 245 238 237 240 243
309 312 311 313 315 316 316 317 319 321 321 323 323 321 318 314 311 307 305 308 304 287 277 273 267 259 253 246 239 236 237 237
307 307 307 307 310 309 308 309 314 313 313 315 316 315 315 312 309 305 300 300 299 295 285 276 271 264 254 246 242 242 234 232
306 305 304 304 305 304 303 307 306 305 305 306 307 307 308 308 306 304 298 291 292 291 288 280 270 266 255 234 230 241 241 241
305 304 303 303 304 301 302 303 303 303 301 300 301 300 300 302 303 301 295 286 283 284 284 284 281 266 256 239 223 233 237 239
301 299 300 302 300 297 298 299 298 298 298 298 297 296 294 294 296 294 289 284 279 278 279 283 281 278 254 238 214 223 223 228
297 296 295 296 294 294 294 295 295 295 295 294 294 294 292 287 287 285 281 280 276 272 274 273 271 276 272 228 212 214 222 221
301 298 297 296 294 294 293 292 291 292 292 291 291 290 289 285 284 281 274 266 268 261 261 267 269 271 263 244 211 216 216 219
305 303 302 302 301 303 303 300 296 291 292 291 289 288 284 282 281 284 279 265 259 256 256 252 265 267 262 232 210 219 211 213
317 312 310 306 302 310 308 302 296 293 291 289 286 285 284 282 281 277 274 281 268 265 253 248 244 257 247 228 203 202 205 216
313 307 308 307 309 315 311 305 302 299 294 292 288 285 283 280 275 273 272 265 264 269 268 241 241 233 234 219 203 203 198 206